カタログに戻る

STARLINK-36897

運用中通信VLEO
NORAD 67951·PAYLOAD·🇺🇸 United States

打ち上げ Feb 24, 2026 から Vandenberg Space Force Base

Loading…

次のパス (今後24時間)

TLE

最新Source: CelesTrak SupGP

元期: Sep 14, 2026, 21:33 UTC

1 67951C 26037V   26257.89840278  .00012257  00000+0  44397-3 0  2577
2 67951  43.0036 202.5093 0001397 260.3008 104.3121 15.27569752    18

AllMySatでSTARLINK-36897をリアルタイム追跡

Download on the App Store